| time (UTC) | temp F | wind direction | speed knots | gust knots | rain 1hr in | rain 24hr in | rain mn in | humidity % | barometer mb |
| 20260506093035 | 61 | 71 | 6.1 | 10.4 | 0.00 | 0.13 | 0.11 | 94 | 1009.1 |
| 20260506092535 | 61 | 86 | 7.8 | 13.0 | 0.00 | 0.14 | 0.11 | 94 | 1009.1 |
| 20260506092035 | 61 | 78 | 5.2 | 10.4 | 0.00 | 0.14 | 0.11 | 94 | 1009.2 |
| 20260506091035 | 61 | 71 | 5.2 | 12.2 | 0.00 | 0.15 | 0.11 | 94 | 1009.2 |
| 20260506090535 | 61 | 60 | 7.0 | 10.4 | 0.00 | 0.15 | 0.11 | 95 | 1009.2 |
| 20260506090035 | 61 | 75 | 6.1 | 10.4 | 0.00 | 0.16 | 0.11 | 95 | 1009.2 |
| 20260506085535 | 61 | 63 | 4.3 | 7.0 | 0.00 | 0.17 | 0.11 | 95 | 1009.0 |
| 20260506085035 | 61 | 72 | 5.2 | 7.0 | 0.00 | 0.17 | 0.11 | 95 | 1009.2 |
| 20260506084542 | 61 | 91 | 5.2 | 10.4 | 0.00 | 0.17 | 0.11 | 95 | 1009.2 |
| 20260506084035 | 61 | 75 | 7.0 | 11.3 | 0.00 | 0.18 | 0.11 | 95 | 1009.2 |
| 20260506083537 | 61 | 69 | 6.1 | 8.7 | 0.00 | 0.19 | 0.11 | 96 | 1009.2 |
| 20260506083035 | 61 | 60 | 4.3 | 7.8 | 0.00 | 0.20 | 0.11 | 96 | 1009.2 |
| 20260506082035 | 60 | 92 | 5.2 | 7.0 | 0.00 | 0.20 | 0.11 | 96 | 1009.1 |
| 20260506081534 | 60 | 91 | 5.2 | 10.4 | 0.00 | 0.21 | 0.11 | 97 | 1009.1 |
| 20260506081035 | 60 | 86 | 4.3 | 10.4 | 0.00 | 0.22 | 0.11 | 96 | 1009.2 |
| 20260506080535 | 60 | 94 | 5.2 | 7.8 | 0.00 | 0.22 | 0.11 | 97 | 1009.1 |
| 20260506073034 | 60 | 109 | 7.0 | 10.4 | 0.00 | 0.25 | 0.11 | 98 | 1009.1 |
| 20260506072035 | 60 | 76 | 4.3 | 6.1 | 0.01 | 0.26 | 0.11 | 99 | 1009.1 |
| 20260506071538 | 60 | 110 | 4.3 | 7.0 | 0.01 | 0.26 | 0.11 | 99 | 1009.1 |
| 20260506071035 | 59 | 80 | 2.6 | 8.7 | 0.01 | 0.26 | 0.11 | 99 | 1009.1 |
| 20260506062034 | 58 | 78 | 5.2 | 8.7 | 0.02 | 0.26 | 0.10 | 99 | 1009.3 |
| 20260506061035 | 58 | 53 | 2.6 | 4.3 | 0.02 | 0.26 | 0.10 | 99 | 1009.6 |
| 20260506060535 | 58 | 42 | 2.6 | 6.1 | 0.03 | 0.26 | 0.10 | 99 | 1009.4 |
| 20260506051034 | 57 | 110 | 4.3 | 7.0 | 0.05 | 0.24 | 0.08 | 98 | 1009.8 |
| 20260506050536 | 57 | 99 | 6.1 | 10.4 | 0.04 | 0.23 | 0.07 | 98 | 1009.8 |
| 20260506044534 | 57 | 100 | 5.2 | 7.0 | 0.04 | 0.20 | 0.05 | 98 | 1009.7 |
| 20260506043533 | 57 | 118 | 4.3 | 11.3 | 0.04 | 0.20 | 0.04 | 98 | 1009.7 |
| 20260506043034 | 57 | 104 | 6.1 | 10.4 | 0.03 | 0.19 | 0.03 | 98 | 1009.6 |
| 20260506042535 | 57 | 100 | 6.1 | 10.4 | 0.03 | 0.19 | 0.03 | 98 | 1009.4 |
| 20260506042034 | 57 | 103 | 7.8 | 13.9 | 0.03 | 0.19 | 0.03 | 98 | 1009.4 |
| 20260506041534 | 57 | 105 | 7.8 | 13.0 | 0.03 | 0.19 | 0.03 | 98 | 1009.5 |
| 20260506041034 | 57 | 112 | 7.0 | 13.0 | 0.03 | 0.19 | 0.03 | 98 | 1009.5 |
| 20260506040534 | 57 | 103 | 7.8 | 13.0 | 0.03 | 0.19 | 0.03 | 98 | 1009.4 |
| 20260506040035 | 56 | 102 | 7.8 | 10.4 | 0.03 | 0.19 | 0.03 | 98 | 1009.4 |
| 20260506035034 | 56 | 103 | 7.0 | 13.0 | 0.02 | 0.17 | 0.02 | 98 | 1009.4 |
| 20260506034534 | 56 | 88 | 6.1 | 12.2 | 0.01 | 0.17 | 0.01 | 98 | 1009.5 |
| 20260506034033 | 56 | 89 | 5.2 | 10.4 | 0.00 | 0.16 | 0.00 | 98 | 1009.6 |
| 20260506033537 | 56 | 100 | 4.3 | 7.8 | 0.00 | 0.16 | 0.00 | 98 | 1009.6 |
| 20260506033035 | 56 | 84 | 5.2 | 8.7 | 0.00 | 0.16 | 0.00 | 98 | 1009.5 |
| 20260506032534 | 56 | 80 | 6.1 | 7.0 | 0.00 | 0.16 | 0.00 | 98 | 1009.4 |
| 20260506031533 | 56 | 96 | 4.3 | 6.1 | 0.00 | 0.16 | 0.00 | 98 | 1009.5 |
| 20260506031034 | 56 | 73 | 5.2 | 6.1 | 0.00 | 0.16 | 0.00 | 98 | 1009.5 |
| 20260506030034 | 55 | 91 | 2.6 | 6.1 | 0.00 | 0.16 | 0.00 | 98 | 1009.8 |
| 20260506025535 | 55 | 58 | 1.7 | 4.3 | 0.00 | 0.16 | 0.00 | 98 | 1009.8 |
| 20260506025033 | 55 | 61 | 3.5 | 6.1 | 0.00 | 0.16 | 0.00 | 98 | 1009.8 |
| 20260506024533 | 55 | 63 | 2.6 | 6.1 | 0.00 | 0.16 | 0.00 | 98 | 1009.9 |
| 20260506024034 | 55 | 80 | 2.6 | 2.6 | 0.00 | 0.16 | 0.00 | 98 | 1010.1 |
| 20260506023035 | 55 | 72 | 1.7 | 2.6 | 0.00 | 0.16 | 0.00 | 98 | 1010.3 |
| 20260506022534 | 55 | 69 | 1.7 | 2.6 | 0.00 | 0.16 | 0.00 | 98 | 1010.2 |
| 20260506021534 | 55 | 161 | 0.9 | 1.7 | 0.00 | 0.16 | 0.00 | 98 | 1010.5 |
| 20260506021033 | 55 | 161 | 0.0 | 0.9 | 0.00 | 0.16 | 0.00 | 98 | 1010.6 |
| 20260506020534 | 55 | 161 | 0.0 | 0.0 | 0.00 | 0.16 | 0.00 | 98 | 1010.6 |
| 20260506020034 | 55 | 161 | 0.0 | 0.0 | 0.00 | 0.16 | 0.00 | 98 | 1010.6 |
| 20260506015533 | 55 | 161 | 0.0 | 0.0 | 0.00 | 0.16 | 0.00 | 98 | 1010.4 |
| 20260506015033 | 55 | 161 | 0.0 | 0.0 | 0.00 | 0.16 | 0.00 | 98 | 1010.4 |
| 20260506014533 | 55 | 161 | 0.0 | 1.7 | 0.00 | 0.16 | 0.00 | 98 | 1010.4 |
| 20260506013533 | 55 | 162 | 0.0 | 0.9 | 0.00 | 0.16 | 0.00 | 98 | 1010.6 |
| 20260506013034 | 55 | 162 | 0.0 | 0.9 | 0.00 | 0.16 | 0.00 | 97 | 1010.7 |
| 20260506012533 | 55 | 162 | 0.9 | 1.7 | 0.00 | 0.16 | 0.00 | 97 | 1010.7 |
| 20260506012033 | 55 | 163 | 0.9 | 2.6 | 0.00 | 0.16 | 0.00 | 97 | 1010.7 |
| 20260506011533 | 55 | 355 | 0.0 | 0.0 | 0.00 | 0.16 | 0.00 | 97 | 1010.8 |
| 20260506011035 | 55 | 355 | 0.0 | 0.0 | 0.00 | 0.16 | 0.00 | 97 | 1010.9 |
| 20260506005533 | 55 | 355 | 0.0 | 0.0 | 0.00 | 0.16 | 0.00 | 97 | 1010.8 |
| 20260506005033 | 55 | 355 | 0.0 | 0.0 | 0.00 | 0.16 | 0.00 | 97 | 1010.8 |
| 20260506004534 | 55 | 355 | 0.0 | 0.0 | 0.00 | 0.16 | 0.00 | 97 | 1010.9 |
| 20260506004048 | 55 | 355 | 0.9 | 1.7 | 0.00 | 0.16 | 0.00 | 97 | 1010.9 |
| 20260506003533 | 55 | 220 | 0.0 | 1.7 | 0.00 | 0.16 | 0.00 | 97 | 1011.1 |
| 20260506003033 | 55 | 220 | 0.9 | 1.7 | 0.00 | 0.16 | 0.00 | 97 | 1011.2 |
| 20260506002033 | 55 | 257 | 0.9 | 1.7 | 0.00 | 0.16 | 0.00 | 97 | 1011.1 |
| 20260506001533 | 55 | 256 | 1.7 | 1.7 | 0.00 | 0.16 | 0.00 | 97 | 1011.3 |
| 20260506001034 | 55 | 216 | 0.0 | 0.0 | 0.00 | 0.16 | 0.00 | 97 | 1011.2 |
| 20260506000533 | 55 | 216 | 1.7 | 2.6 | 0.00 | 0.16 | 0.00 | 97 | 1011.3 |
| 20260506000033 | 55 | 84 | 0.0 | 0.0 | 0.00 | 0.16 | 0.00 | 97 | 1011.3 |
| 20260505235033 | 55 | 84 | 0.9 | 1.7 | 0.00 | 0.16 | 0.00 | 97 | 1011.3 |
| 20260505234033 | 55 | 183 | 0.9 | 2.6 | 0.00 | 0.16 | 0.00 | 97 | 1011.4 |
| 20260505233033 | 55 | 113 | 2.6 | 2.6 | 0.00 | 0.16 | 0.00 | 97 | 1011.5 |
| 20260505232533 | 55 | 104 | 1.7 | 2.6 | 0.00 | 0.16 | 0.00 | 97 | 1011.6 |
| 20260505232032 | 55 | 86 | 2.6 | 4.3 | 0.00 | 0.16 | 0.00 | 97 | 1011.6 |
| 20260505231532 | 55 | 93 | 1.7 | 4.3 | 0.00 | 0.16 | 0.00 | 97 | 1011.6 |
| 20260505230535 | 55 | 71 | 0.9 | 2.6 | 0.00 | 0.16 | 0.00 | 97 | 1011.5 |
| 20260505230036 | 55 | 71 | 1.7 | 2.6 | 0.00 | 0.16 | 0.00 | 97 | 1011.5 |
| 20260505225033 | 55 | 73 | 1.7 | 2.6 | 0.00 | 0.16 | 0.00 | 97 | 1011.6 |
| 20260505224033 | 55 | 72 | 1.7 | 2.6 | 0.00 | 0.16 | 0.00 | 97 | 1011.5 |
| 20260505223533 | 55 | 63 | 2.6 | 4.3 | 0.00 | 0.16 | 0.00 | 97 | 1011.6 |
| 20260505222533 | 55 | 91 | 1.7 | 2.6 | 0.00 | 0.16 | 0.00 | 97 | 1011.6 |
| 20260505222033 | 55 | 84 | 2.6 | 5.2 | 0.00 | 0.16 | 0.00 | 96 | 1011.6 |
| 20260505221536 | 55 | 88 | 2.6 | 4.3 | 0.00 | 0.16 | 0.00 | 96 | 1011.5 |
| 20260505221033 | 55 | 90 | 2.6 | 4.3 | 0.00 | 0.16 | 0.00 | 96 | 1011.6 |
| 20260505220534 | 55 | 81 | 3.5 | 5.2 | 0.00 | 0.16 | 0.00 | 96 | 1011.6 |
| 20260505215033 | 55 | 93 | 3.5 | 4.3 | 0.00 | 0.16 | 0.16 | 96 | 1011.7 |
| 20260505214533 | 55 | 98 | 1.7 | 2.6 | 0.00 | 0.16 | 0.16 | 96 | 1011.8 |
| 20260505214032 | 55 | 81 | 1.7 | 4.3 | 0.00 | 0.16 | 0.16 | 96 | 1011.9 |
| 20260505213535 | 55 | 86 | 2.6 | 4.3 | 0.00 | 0.16 | 0.16 | 96 | 1012.0 |
| 20260505213034 | 55 | 89 | 2.6 | 5.2 | 0.00 | 0.16 | 0.16 | 96 | 1012.1 |
| 20260505212533 | 55 | 86 | 2.6 | 5.2 | 0.00 | 0.16 | 0.16 | 95 | 1012.2 |
| 20260505212032 | 55 | 97 | 2.6 | 5.2 | 0.00 | 0.16 | 0.16 | 95 | 1012.2 |
| 20260505211036 | 56 | 79 | 2.6 | 6.1 | 0.00 | 0.16 | 0.16 | 95 | 1012.3 |
| 20260505210533 | 56 | 77 | 2.6 | 5.2 | 0.00 | 0.16 | 0.16 | 95 | 1012.3 |
| 20260505210040 | 56 | 78 | 2.6 | 4.3 | 0.00 | 0.16 | 0.16 | 95 | 1012.3 |
| 20260505205534 | 56 | 62 | 4.3 | 5.2 | 0.00 | 0.16 | 0.16 | 95 | 1012.3 |
| 20260505204548 | 56 | 86 | 3.5 | 5.2 | 0.00 | 0.16 | 0.16 | 94 | 1012.3 |
| 20260505204032 | 56 | 79 | 4.3 | 6.1 | 0.00 | 0.16 | 0.16 | 94 | 1012.3 |
| 20260505203534 | 56 | 83 | 2.6 | 6.1 | 0.00 | 0.16 | 0.16 | 94 | 1012.4 |
| 20260505203032 | 56 | 69 | 4.3 | 6.1 | 0.00 | 0.16 | 0.16 | 94 | 1012.3 |
| 20260505202533 | 56 | 71 | 1.7 | 7.0 | 0.00 | 0.16 | 0.16 | 94 | 1012.3 |
| 20260505201533 | 57 | 78 | 2.6 | 4.3 | 0.00 | 0.16 | 0.16 | 93 | 1012.3 |
| 20260505201033 | 57 | 64 | 2.6 | 5.2 | 0.00 | 0.16 | 0.16 | 93 | 1012.3 |
| 20260505200536 | 57 | 64 | 2.6 | 5.2 | 0.00 | 0.16 | 0.16 | 93 | 1012.3 |
| 20260505200048 | 57 | 78 | 2.6 | 6.1 | 0.00 | 0.16 | 0.16 | 92 | 1012.2 |
| 20260505195532 | 57 | 86 | 2.6 | 4.3 | 0.00 | 0.16 | 0.16 | 92 | 1012.2 |
| 20260505195034 | 57 | 82 | 2.6 | 6.1 | 0.00 | 0.16 | 0.16 | 92 | 1012.2 |
| 20260505194533 | 58 | 70 | 2.6 | 7.0 | 0.00 | 0.16 | 0.16 | 91 | 1012.1 |
| 20260505194033 | 58 | 76 | 2.6 | 4.3 | 0.00 | 0.16 | 0.16 | 91 | 1012.1 |
| 20260505193548 | 58 | 70 | 3.5 | 6.1 | 0.00 | 0.16 | 0.16 | 91 | 1012.1 |
| 20260505193032 | 58 | 80 | 3.5 | 7.8 | 0.00 | 0.16 | 0.16 | 91 | 1012.0 |
| 20260505192532 | 58 | 71 | 3.5 | 6.1 | 0.00 | 0.16 | 0.16 | 90 | 1012.0 |
| 20260505192035 | 58 | 69 | 3.5 | 5.2 | 0.00 | 0.16 | 0.16 | 90 | 1012.0 |
| 20260505191533 | 59 | 64 | 3.5 | 6.1 | 0.00 | 0.16 | 0.16 | 90 | 1012.0 |
| 20260505191032 | 59 | 77 | 4.3 | 7.0 | 0.00 | 0.16 | 0.16 | 90 | 1012.0 |
| 20260505190533 | 59 | 67 | 4.3 | 7.0 | 0.00 | 0.16 | 0.16 | 90 | 1012.0 |
| 20260505190033 | 59 | 78 | 1.7 | 6.1 | 0.00 | 0.16 | 0.16 | 90 | 1012.0 |
| 20260505185532 | 59 | 58 | 3.5 | 5.2 | 0.00 | 0.16 | 0.16 | 89 | 1011.9 |
| 20260505185032 | 59 | 83 | 4.3 | 6.1 | 0.00 | 0.16 | 0.16 | 89 | 1011.9 |
| 20260505184532 | 59 | 77 | 5.2 | 7.0 | 0.00 | 0.16 | 0.16 | 89 | 1011.8 |
| 20260505184032 | 60 | 71 | 4.3 | 8.7 | 0.00 | 0.16 | 0.16 | 88 | 1011.9 |
| 20260505183533 | 60 | 67 | 3.5 | 6.1 | 0.00 | 0.16 | 0.16 | 88 | 1012.0 |
| 20260505183032 | 60 | 63 | 3.5 | 6.1 | 0.00 | 0.16 | 0.16 | 88 | 1011.9 |
| 20260505182533 | 60 | 61 | 3.5 | 6.1 | 0.00 | 0.16 | 0.16 | 88 | 1011.8 |
| 20260505182032 | 60 | 52 | 1.7 | 2.6 | 0.00 | 0.16 | 0.16 | 87 | 1011.8 |
| 20260505181533 | 60 | 76 | 2.6 | 4.3 | 0.00 | 0.16 | 0.16 | 87 | 1011.7 |
| 20260505181032 | 61 | 65 | 4.3 | 6.1 | 0.00 | 0.16 | 0.16 | 86 | 1011.8 |
| 20260505180532 | 61 | 66 | 3.5 | 6.1 | 0.00 | 0.16 | 0.16 | 86 | 1011.8 |
| 20260505175535 | 61 | 62 | 5.2 | 7.8 | 0.00 | 0.16 | 0.16 | 86 | 1011.7 |
| 20260505175032 | 61 | 62 | 5.2 | 7.0 | 0.00 | 0.16 | 0.16 | 86 | 1011.5 |
| 20260505174532 | 61 | 59 | 5.2 | 7.0 | 0.00 | 0.16 | 0.16 | 86 | 1011.6 |
| 20260505174033 | 61 | 65 | 4.3 | 8.7 | 0.00 | 0.16 | 0.16 | 85 | 1011.6 |
| 20260505173533 | 61 | 70 | 4.3 | 7.0 | 0.00 | 0.16 | 0.16 | 85 | 1011.6 |
| 20260505172531 | 62 | 58 | 4.3 | 8.7 | 0.00 | 0.16 | 0.16 | 85 | 1011.5 |
| 20260505172031 | 62 | 57 | 6.1 | 10.4 | 0.00 | 0.16 | 0.16 | 85 | 1011.5 |
| 20260505171532 | 62 | 64 | 2.6 | 7.8 | 0.00 | 0.16 | 0.16 | 85 | 1011.5 |
| 20260505171032 | 62 | 52 | 4.3 | 10.4 | 0.00 | 0.16 | 0.16 | 85 | 1011.4 |
| 20260505170532 | 62 | 66 | 6.1 | 10.4 | 0.00 | 0.16 | 0.16 | 86 | 1011.4 |
| 20260505170032 | 62 | 80 | 5.2 | 8.7 | 0.00 | 0.16 | 0.16 | 86 | 1011.5 |
| 20260505165533 | 62 | 62 | 7.0 | 10.4 | 0.00 | 0.16 | 0.16 | 86 | 1011.5 |
| 20260505164532 | 62 | 75 | 7.0 | 10.4 | 0.00 | 0.16 | 0.16 | 85 | 1011.5 |
| 20260505164032 | 62 | 70 | 7.8 | 13.0 | 0.00 | 0.16 | 0.16 | 84 | 1011.5 |
| 20260505163532 | 63 | 77 | 7.0 | 11.3 | 0.00 | 0.16 | 0.16 | 84 | 1011.6 |
| 20260505162034 | 63 | 64 | 5.2 | 7.8 | 0.00 | 0.16 | 0.16 | 83 | 1011.5 |
| 20260505161532 | 63 | 60 | 6.1 | 8.7 | 0.00 | 0.16 | 0.16 | 83 | 1011.5 |
| 20260505161035 | 63 | 90 | 6.1 | 10.4 | 0.00 | 0.16 | 0.16 | 83 | 1011.5 |
| 20260505160532 | 63 | 73 | 7.8 | 11.3 | 0.00 | 0.16 | 0.16 | 83 | 1011.6 |
| 20260505153031 | 63 | 71 | 5.2 | 11.3 | 0.00 | 0.16 | 0.16 | 84 | 1011.9 |
| 20260505152031 | 63 | 55 | 4.3 | 10.4 | 0.00 | 0.16 | 0.16 | 84 | 1011.8 |
| 20260505151531 | 63 | 59 | 7.8 | 10.4 | 0.00 | 0.16 | 0.16 | 83 | 1011.8 |
| 20260505151032 | 63 | 65 | 5.2 | 10.4 | 0.00 | 0.16 | 0.16 | 83 | 1011.8 |
| 20260505150532 | 63 | 49 | 6.1 | 10.4 | 0.00 | 0.16 | 0.16 | 83 | 1011.8 |
| 20260505140533 | 64 | 72 | 7.8 | 12.2 | 0.00 | 0.16 | 0.16 | 84 | 1011.9 |
| 20260505125031 | 61 | 82 | 8.7 | 13.0 | 0.00 | 0.16 | 0.16 | 87 | 1012.5 |
| 20260505124531 | 61 | 78 | 6.1 | 8.7 | 0.00 | 0.16 | 0.16 | 88 | 1012.4 |
| 20260505124031 | 61 | 75 | 6.1 | 10.4 | 0.00 | 0.16 | 0.16 | 88 | 1012.4 |
| 20260505123531 | 61 | 87 | 5.2 | 7.8 | 0.00 | 0.16 | 0.16 | 89 | 1012.5 |
| 20260505123031 | 60 | 77 | 3.5 | 7.8 | 0.00 | 0.16 | 0.16 | 90 | 1012.6 |
| 20260505122534 | 60 | 90 | 6.1 | 10.4 | 0.00 | 0.16 | 0.16 | 90 | 1012.7 |
| 20260505122031 | 60 | 97 | 5.2 | 10.4 | 0.00 | 0.16 | 0.16 | 90 | 1012.7 |
| 20260505121542 | 60 | 76 | 2.6 | 10.4 | 0.00 | 0.16 | 0.16 | 90 | 1012.7 |
| 20260505120531 | 60 | 77 | 6.1 | 10.4 | 0.00 | 0.16 | 0.16 | 91 | 1012.7 |
| 20260505120034 | 60 | 86 | 5.2 | 7.8 | 0.00 | 0.16 | 0.16 | 91 | 1012.7 |
| 20260505115030 | 60 | 88 | 5.2 | 12.2 | 0.00 | 0.16 | 0.16 | 91 | 1012.7 |
| 20260505114531 | 60 | 72 | 7.8 | 11.3 | 0.00 | 0.16 | 0.16 | 92 | 1012.7 |
| 20260505114032 | 60 | 64 | 7.8 | 11.3 | 0.00 | 0.16 | 0.16 | 92 | 1012.8 |
| 20260505113531 | 60 | 58 | 4.3 | 10.4 | 0.00 | 0.16 | 0.16 | 93 | 1012.9 |
| 20260505113032 | 59 | 75 | 6.1 | 10.4 | 0.00 | 0.16 | 0.16 | 92 | 1012.9 |
| 20260505112530 | 59 | 86 | 5.2 | 7.0 | 0.00 | 0.16 | 0.16 | 92 | 1012.9 |
| 20260505112038 | 59 | 85 | 6.1 | 8.7 | 0.00 | 0.16 | 0.16 | 93 | 1012.9 |
| 20260505111546 | 59 | 99 | 5.2 | 11.3 | 0.00 | 0.16 | 0.16 | 93 | 1012.9 |
| 20260505111031 | 59 | 69 | 7.8 | 8.7 | 0.00 | 0.16 | 0.16 | 93 | 1012.9 |
| 20260505110531 | 59 | 86 | 6.1 | 10.4 | 0.00 | 0.16 | 0.16 | 94 | 1013.0 |
| 20260505102031 | 57 | 119 | 3.5 | 6.1 | 0.00 | 0.16 | 0.16 | 96 | 1013.1 |
| 20260505101031 | 57 | 65 | 4.3 | 7.8 | 0.01 | 0.16 | 0.16 | 96 | 1012.9 |
| 20260505100531 | 57 | 60 | 3.5 | 6.1 | 0.02 | 0.16 | 0.16 | 96 | 1012.9 |
| 20260505100032 | 57 | 99 | 2.6 | 6.1 | 0.02 | 0.16 | 0.16 | 96 | 1012.9 |
| 20260505095530 | 57 | 75 | 5.2 | 6.1 | 0.02 | 0.16 | 0.16 | 96 | 1013.0 |
| 20260505095031 | 57 | 116 | 2.6 | 4.3 | 0.03 | 0.16 | 0.16 | 96 | 1013.0 |
| 20260505094530 | 57 | 105 | 4.3 | 7.0 | 0.03 | 0.16 | 0.16 | 96 | 1013.0 |
| 20260505094033 | 57 | 119 | 4.3 | 6.1 | 0.04 | 0.16 | 0.16 | 96 | 1013.0 |
| 20260505093530 | 57 | 98 | 4.3 | 6.1 | 0.04 | 0.16 | 0.16 | 96 | 1013.0 |